Weather History for Clinton, AR

Change the Weather History Date:

Sunday, September 8, 2013

  Actual Average (KFLP) Record (KFLP)
Temperature  
Mean Temperature 81 °F -  
Max Temperature 98 °F 84 °F 96 °F (2013)
Min Temperature 64 °F 60 °F 53 °F (2003)
Cooling Degree Days 16    
Growing Degree Days 31 (Base 50)    
Moisture  
Dew Point 70 °F    
Average Humidity 77    
Maximum Humidity 100    
Minimum Humidity 35    
Precipitation  
Precipitation 0.00 in - - ()
Sea Level Pressure  
Sea Level Pressure 29.96 in    
Wind  
Wind Speed 0 mph (WSW)    
Max Wind Speed 6 mph    
Max Gust Speed -    
Visibility 7 miles    
Events      
Averages and records for this station are not official NWS values.
T = Trace of Precipitation, MM = Missing Value Source: NWS Daily Summary

Daily Weather History Graph

Daily Weather History Graph

Search for Another Location

Airport:

Trip Planner

Search our weather history database for the weather conditions in past years. The results will help you decide how hot, cold, wet, or windy it might be!

Date:

Astronomy

Sep. 08, 2013 Rise Set
Actual Time 6:47 AM CDT 7:26 PM CDT
Civil Twilight 6:21 AM CDT 7:52 PM CDT
Nautical Twilight 5:51 AM CDT 8:22 PM CDT
Astronomical Twilight 5:20 AM CDT 8:53 PM CDT
Moon 9:56 AM CDT (9/8) 9:11 PM CDT (9/8)
Length of Visible Light 13h 30m
Length of Day
12h 39m
Waxing Crescent, 11% of the Moon is Illuminated
Sep 8
Waxing Crescent
Sep 12
First Quarter
Sep 19
Full
Sep 26
Last Quarter
Oct 4
New

Hourly Weather History & Observations

Time (CDT) Temp. Heat Index Dew Point Humidity Pressure Visibility Wind Dir Wind Speed Gust Speed Precip Events Conditions
12:15 AM 69.8 °F - 69.8 °F 100% 30.01 in 5.0 mi Calm Calm - N/A   Clear
12:35 AM 69.8 °F - 69.8 °F 100% 30.00 in 5.0 mi Calm Calm - N/A   Clear
12:55 AM 69.8 °F - 69.8 °F 100% 30.00 in 5.0 mi Calm Calm - N/A   Clear
1:15 AM 69.8 °F - 68.0 °F 94% 30.00 in 5.0 mi Calm Calm - N/A   Clear
1:35 AM 69.8 °F - 68.0 °F 94% 30.00 in 5.0 mi Calm Calm - N/A   Clear
1:55 AM 69.8 °F - 68.0 °F 94% 29.99 in 5.0 mi Calm Calm - N/A   Clear
2:15 AM 68.0 °F - 68.0 °F 100% 29.99 in 5.0 mi Calm Calm - N/A   Clear
2:35 AM 68.0 °F - 66.2 °F 94% 29.99 in 5.0 mi Calm Calm - N/A   Clear
2:55 AM 68.0 °F - 66.2 °F 94% 29.98 in 5.0 mi Calm Calm - N/A   Clear
3:15 AM 66.2 °F - 66.2 °F 100% 29.98 in 4.0 mi Calm Calm - N/A   Clear
3:35 AM 66.2 °F - 66.2 °F 100% 29.98 in 4.0 mi Calm Calm - N/A   Clear
3:55 AM 66.2 °F - 66.2 °F 100% 29.97 in 4.0 mi Calm Calm - N/A   Clear
4:15 AM 66.2 °F - 66.2 °F 100% 29.98 in 4.0 mi Calm Calm - N/A   Clear
4:35 AM 66.2 °F - 66.2 °F 100% 29.98 in 4.0 mi Calm Calm - N/A   Clear
4:55 AM 66.2 °F - 66.2 °F 100% 29.98 in 4.0 mi Calm Calm - N/A   Clear
5:15 AM 66.2 °F - 66.2 °F 100% 29.98 in 4.0 mi Calm Calm - N/A   Clear
5:35 AM 66.2 °F - 64.4 °F 94% 29.98 in 4.0 mi Calm Calm - N/A   Clear
5:55 AM 64.4 °F - 64.4 °F 100% 29.98 in 4.0 mi Calm Calm - N/A   Clear
6:15 AM 64.4 °F - 64.4 °F 100% 29.99 in 4.0 mi Calm Calm - N/A   Clear
6:35 AM 64.4 °F - 64.4 °F 100% 29.99 in 4.0 mi Calm Calm - N/A   Clear
6:55 AM 64.4 °F - 64.4 °F 100% 29.99 in 4.0 mi Calm Calm - N/A   Clear
7:15 AM 64.4 °F - 64.4 °F 100% 30.00 in 4.0 mi Calm Calm - N/A   Clear
7:35 AM 66.2 °F - 66.2 °F 100% 29.99 in 4.0 mi Calm Calm - N/A   Light Drizzle
7:55 AM 66.2 °F - 66.2 °F 100% 29.99 in 3.0 mi Calm Calm - N/A   Clear
8:15 AM 69.8 °F - 66.2 °F 88% 30.00 in 5.0 mi Calm Calm - N/A   Clear
8:35 AM 71.6 °F - 68.0 °F 88% 30.00 in 6.0 mi Calm Calm - N/A   Clear
8:55 AM 73.4 °F - 68.0 °F 83% 30.00 in 8.0 mi Calm Calm - N/A   Partly Cloudy
9:15 AM 75.2 °F - 69.8 °F 83% 30.01 in 8.0 mi Calm Calm - N/A   Partly Cloudy
9:35 AM 78.8 °F - 69.8 °F 74% 30.00 in 8.0 mi Calm Calm - N/A   Clear
9:55 AM 78.8 °F - 69.8 °F 74% 30.01 in 7.0 mi Calm Calm - N/A   Clear
10:15 AM 80.6 °F 83.9 °F 69.8 °F 70% 30.01 in 8.0 mi Calm Calm - N/A   Clear
10:35 AM 84.2 °F 88.4 °F 69.8 °F 62% 30.00 in 8.0 mi Calm Calm - N/A   Clear
10:55 AM 86.0 °F 91.8 °F 71.6 °F 62% 30.00 in 8.0 mi Calm Calm - N/A   Clear
11:15 AM 87.8 °F 93.8 °F 71.6 °F 58% 30.00 in 9.0 mi Calm Calm - N/A   Partly Cloudy
11:35 AM 89.6 °F 96.2 °F 71.6 °F 55% 29.99 in 9.0 mi SE 3.5 mph - N/A   Partly Cloudy
11:55 AM 91.4 °F 98.4 °F 71.6 °F 52% 29.99 in 8.0 mi WSW 3.5 mph - N/A   Partly Cloudy
12:15 PM 93.2 °F 100.5 °F 71.6 °F 49% 29.99 in 10.0 mi Calm Calm - N/A   Scattered Clouds
12:35 PM 93.2 °F 100.5 °F 71.6 °F 49% 29.98 in 9.0 mi Calm Calm - N/A   Mostly Cloudy
12:55 PM 93.2 °F 98.8 °F 69.8 °F 46% 29.98 in 9.0 mi Calm Calm - N/A   Partly Cloudy
1:15 PM 95.0 °F 99.5 °F 68.0 °F 41% 29.97 in 10.0 mi Calm Calm - N/A   Clear
1:35 PM 96.8 °F 101.8 °F 68.0 °F 39% 29.97 in 9.0 mi SE 4.6 mph - N/A   Clear
1:55 PM 96.8 °F 100.7 °F 66.2 °F 37% 29.95 in 10.0 mi Calm Calm - N/A   Partly Cloudy
2:15 PM 96.8 °F 100.7 °F 66.2 °F 37% 29.95 in 9.0 mi West 4.6 mph - N/A   Partly Cloudy
2:35 PM 96.8 °F 100.7 °F 66.2 °F 37% 29.94 in 9.0 mi Calm Calm - N/A   Clear
2:55 PM 96.8 °F 100.7 °F 66.2 °F 37% 29.93 in 10.0 mi Calm Calm - N/A   Clear
3:15 PM 96.8 °F 100.7 °F 66.2 °F 37% 29.92 in 6.0 mi NW 5.8 mph - N/A   Haze
3:35 PM 96.8 °F 100.7 °F 66.2 °F 37% 29.92 in 9.0 mi NW 4.6 mph - N/A   Clear
3:55 PM 96.8 °F 100.7 °F 66.2 °F 37% 29.92 in 9.0 mi Calm Calm - N/A   Clear
4:15 PM 98.6 °F 102.8 °F 66.2 °F 35% 29.91 in 9.0 mi Calm Calm - N/A   Clear
4:35 PM 96.8 °F 100.7 °F 66.2 °F 37% 29.90 in 10.0 mi South 4.6 mph - N/A   Clear
4:55 PM 96.8 °F 103.1 °F 69.8 °F 41% 29.90 in 10.0 mi Calm Calm - N/A   Clear
5:15 PM 95.0 °F 101.3 °F 69.8 °F 44% 29.90 in 9.0 mi Calm Calm - N/A   Clear
5:35 PM 93.2 °F 105.0 °F 75.2 °F 56% 29.89 in 8.0 mi Calm Calm - N/A   Clear
5:55 PM 91.4 °F 102.5 °F 75.2 °F 59% 29.89 in 10.0 mi Calm Calm - N/A   Clear
6:15 PM 89.6 °F 99.8 °F 75.2 °F 62% 29.90 in 9.0 mi Calm Calm - N/A   Clear
6:35 PM 89.6 °F 104.7 °F 78.8 °F 70% 29.90 in 9.0 mi Calm Calm - N/A   Clear
6:55 PM 86.0 °F 99.3 °F 78.8 °F 79% 29.90 in 8.0 mi Calm Calm - N/A   Clear
7:15 PM 84.2 °F 92.3 °F 75.2 °F 74% 29.90 in 10.0 mi Calm Calm - N/A   Clear
7:35 PM 82.4 °F 89.5 °F 75.2 °F 79% 29.91 in 9.0 mi Calm Calm - N/A   Clear
7:55 PM 80.6 °F 86.2 °F 75.2 °F 84% 29.92 in 9.0 mi Calm Calm - N/A   Clear
8:15 PM 80.6 °F 86.2 °F 75.2 °F 84% 29.92 in 8.0 mi Calm Calm - N/A   Clear
8:35 PM 78.8 °F - 75.2 °F 89% 29.93 in 8.0 mi Calm Calm - N/A   Clear
8:55 PM 78.8 °F - 73.4 °F 83% 29.93 in 8.0 mi Calm Calm - N/A   Clear
9:15 PM 77.0 °F - 73.4 °F 89% 29.94 in 8.0 mi Calm Calm - N/A   Clear
9:35 PM 75.2 °F - 73.4 °F 94% 29.95 in 7.0 mi Calm Calm - N/A   Clear
9:55 PM 75.2 °F - 73.4 °F 94% 29.95 in 6.0 mi Calm Calm - N/A   Clear
10:15 PM 75.2 °F - 73.4 °F 94% 29.96 in 6.0 mi Calm Calm - N/A   Clear
10:35 PM 75.2 °F - 73.4 °F 94% 29.96 in 6.0 mi Calm Calm - N/A   Partly Cloudy
10:55 PM 73.4 °F - 73.4 °F 100% 29.97 in 5.0 mi Calm Calm - N/A   Clear
11:15 PM 73.4 °F - 73.4 °F 100% 29.97 in 5.0 mi Calm Calm - N/A   Clear
11:35 PM 73.4 °F - 71.6 °F 94% 29.97 in 6.0 mi Calm Calm - N/A   Clear
11:55 PM 73.4 °F - 71.6 °F 94% 29.96 in 5.0 mi Calm Calm - N/A   Clear